Meath Environmental Platform

Observations for Trim Market St

Time AQI Temp °C Hum % Pres Pa CO μg/m³ H₂S μg/m³ NO μg/m³ NO₂ μg/m³ O₃ μg/m³ SO₂ μg/m³ PM1 μg/m³ PM2.5 μg/m³ PM10 μg/m³
Tuesday 14 July 2026
22:51 1 19.3 59 57,930 0.02 0 0 9.2 22.19 0 4.99 9.57 13.74
22:50 1 19.3 59 57,932 0.06 0 0 10.01 25.32 0 5.7 9.07 12.36
22:48 1 19.4 59 57,932 0 0 0 9.69 23.94 0 4.99 8.58 13.06
22:47 1 19.4 59 57,932 0.01 0 0 9.91 20.26 0 4.28 8.08 10.99
22:46 1 19.4 59 57,936 0.01 0 0 11.02 19.88 0 4.99 9.09 12.37
22:45 1 19.4 59 57,936 0 0 0 11.23 23.8 0 4.99 9.1 14.46
22:44 1 19.4 59 57,936 0 0 0 11.84 19.05 0 5.7 8.6 12.38
22:42 1 19.5 59 57,940 0 0 0 10.02 23.96 0 6.41 10.62 15.16
22:41 1 19.5 59 57,942 0 0 0 8.64 23.69 0 5.7 9.12 13.78
22:40 1 19.5 59 57,942 0 0 0 8.34 22.27 0 6.41 9.62 13.78
22:38 1 19.6 58 57,946 0 0 0 8.62 22.88 0 3.56 5.61 10.31
22:37 1 19.6 58 57,952 0 0 0 9.02 22.99 0 4.99 8.62 11.7
22:32 1 19.6 58 57,956 0 0 0 10.36 22.81 0 4.99 8.14 11.02
22:31 1 19.7 58 57,958 0 0 0 12.05 21.65 0 4.99 8.65 12.42
22:29 1 19.7 58 57,958 0 0 0 15.26 17.29 0 4.99 7.65 10.32
22:27 1 19.7 58 57,962 0 0 0 16.27 16.08 0 4.28 7.66 11.02
22:17 1 19.9 57 57,958 0 0 0 8.84 19.21 0 6.41 9.24 14.59
22:16 1 19.9 57 57,956 0.06 1.1 0 11.64 27.9 0 4.28 7.22 12.47
22:15 1 19.9 56 57,954 0 0.68 0 12.97 24.16 0 6.41 10.76 16.01
22:14 1 20 56 57,950 0.03 0.55 0 9.15 21.99 0 4.28 7.74 10.36